Satellite: OKEAN-4 Catalog number: 23317 Epoch time: 09064.77768281 Element set: 845 Inclination: 082.5355 deg RA of node: 070.9874 deg Eccentricity: 0.0022045 Arg of perigee: 350.1454 deg Mean anomaly: 009.9349 deg Mean motion: 14.82677565 rev/day Decay rate: .00000000 rev/day^2 Epoch rev: 77704 Checksum: 313
Satellite: NOAA-14 Catalog number: 23455 Epoch time: 09064.41793911 Element set: 535 Inclination: 098.9164 deg RA of node: 142.4356 deg Eccentricity: 0.0010277 Arg of perigee: 123.3551 deg Mean anomaly: 236.8650 deg Mean motion: 14.13758297 rev/day Decay rate: 4.6e-07 rev/day^2 Epoch rev: 73126 Checksum: 307
Satellite: NOAA-15 Catalog number: 25338 Epoch time: 09064.53786095 Element set: 839 Inclination: 098.5798 deg RA of node: 056.0522 deg Eccentricity: 0.0010787 Arg of perigee: 005.7401 deg Mean anomaly: 354.3898 deg Mean motion: 14.24747458 rev/day Decay rate: -9.8e-07 rev/day^2 Epoch rev: 56201 Checksum: 344
Satellite: RESURS Catalog number: 25394 Epoch time: 09064.67322178 Element set: 157 Inclination: 098.3532 deg RA of node: 102.2299 deg Eccentricity: 0.0001748 Arg of perigee: 122.1441 deg Mean anomaly: 237.9907 deg Mean motion: 14.24180333 rev/day Decay rate: -3.4e-07 rev/day^2 Epoch rev: 55366 Checksum: 290
Satellite: FENGYUN1 Catalog number: 25730 Epoch time: 09063.95917841 Element set: 0704 Inclination: 098.7480 deg RA of node: 037.2741 deg Eccentricity: 0.0022490 Arg of perigee: 150.7294 deg Mean anomaly: 209.5140 deg Mean motion: 14.07935240 rev/day Decay rate: 4.50e-06 rev/day^2 Epoch rev: 50565 Checksum: 291
Satellite: OKEAN-0 Catalog number: 25860 Epoch time: 09063.53195899 Element set: 615 Inclination: 097.7773 deg RA of node: 048.9259 deg Eccentricity: 0.0001484 Arg of perigee: 105.4350 deg Mean anomaly: 254.7018 deg Mean motion: 14.73560623 rev/day Decay rate: -3.0e-08 rev/day^2 Epoch rev: 51773 Checksum: 315
Satellite: NOAA-16 Catalog number: 26536 Epoch time: 09064.51950407 Element set: 315 Inclination: 099.1775 deg RA of node: 065.6841 deg Eccentricity: 0.0010066 Arg of perigee: 208.5889 deg Mean anomaly: 151.4728 deg Mean motion: 14.12511110 rev/day Decay rate: -2.00e-06 rev/day^2 Epoch rev: 43566 Checksum: 291
Satellite: NOAA-17 Catalog number: 27453 Epoch time: 09064.36435471 Element set: 323 Inclination: 098.4974 deg RA of node: 126.9542 deg Eccentricity: 0.0012604 Arg of perigee: 069.6899 deg Mean anomaly: 290.5663 deg Mean motion: 14.24045233 rev/day Decay rate: 5.7e-07 rev/day^2 Epoch rev: 34797 Checksum: 331
Satellite: NOAA-18 Catalog number: 28654 Epoch time: 09064.39352229 Element set: 810 Inclination: 098.8989 deg RA of node: 008.4879 deg Eccentricity: 0.0013595 Arg of perigee: 298.2675 deg Mean anomaly: 061.7125 deg Mean motion: 14.11239679 rev/day Decay rate: 3.72e-06 rev/day^2 Epoch rev: 19531 Checksum: 352
Satellite: NOAA-19 Catalog number: 33591 Epoch time: 09064.70584417 Element set: 26 Inclination: 098.7362 deg RA of node: 013.2144 deg Eccentricity: 0.0014086 Arg of perigee: 173.2782 deg Mean anomaly: 186.8577 deg Mean motion: 14.10938290 rev/day Decay rate: 8.8e-07 rev/day^2 Epoch rev: 384 Checksum: 314
/EX SB KEPS @ AMSAT $ORB09064.M Orbital Elements 09064.MISC
HR AMSAT ORBITAL ELEMENTS FOR MANNED AND MISCELLANEOUS SATELLITES FROM WA5QGD FORT WORTH,TX March 5, 2009 Send Subscribe/unsubscribe to KEPS at http://www.amsat.org/mailman/listinfo/keps BID: ORB09064.M TO ALL RADIO AMATEURS BT
Satellite: HUBBLE Catalog number: 20580 Epoch time: 09064.42347310 Element set: 340 Inclination: 028.4696 deg RA of node: 059.2685 deg Eccentricity: 0.0003599 Arg of perigee: 275.8625 deg Mean anomaly: 084.1555 deg Mean motion: 15.00460534 rev/day Decay rate: 3.25e-06 rev/day^2 Epoch rev: 83425 Checksum: 293
Satellite: PO-34 Catalog number: 25520 Epoch time: 09064.53035072 Element set: 197 Inclination: 028.4602 deg RA of node: 228.9742 deg Eccentricity: 0.0005450 Arg of perigee: 248.7612 deg Mean anomaly: 111.2397 deg Mean motion: 15.17304345 rev/day Decay rate: 3.60e-06 rev/day^2 Epoch rev: 57289 Checksum: 289
Satellite: ISS Catalog number: 25544 Epoch time: 09064.66571322 Element set: 398 Inclination: 051.6402 deg RA of node: 117.2204 deg Eccentricity: 0.0009690 Arg of perigee: 090.7880 deg Mean anomaly: 050.2403 deg Mean motion: 15.71285410 rev/day Decay rate: 8.711e-05 rev/day^2 Epoch rev: 58966 Checksum: 289
Satellite: CO-58 Catalog number: 28895 Epoch time: 09063.73820533 Element set: 0249 Inclination: 098.0704 deg RA of node: 317.2059 deg Eccentricity: 0.0017236 Arg of perigee: 317.5148 deg Mean anomaly: 042.4706 deg Mean motion: 14.59746193 rev/day Decay rate: 3.0e-07 rev/day^2 Epoch rev: 17849 Checksum: 327
Satellite: FALCON Catalog number: 30776 Epoch time: 09063.95566483 Element set: 0531 Inclination: 035.4341 deg RA of node: 011.7705 deg Eccentricity: 0.0000675 Arg of perigee: 058.2612 deg Mean anomaly: 301.8198 deg Mean motion: 15.03181151 rev/day Decay rate: 3.27e-06 rev/day^2 Epoch rev: 10940 Checksum: 270
Satellite: MAST Catalog number: 31126 Epoch time: 09064.15382343 Element set: 541 Inclination: 098.0018 deg RA of node: 123.6602 deg Eccentricity: 0.0093659 Arg of perigee: 242.5498 deg Mean anomaly: 116.6152 deg Mean motion: 14.53480332 rev/day Decay rate: -5.1e-07 rev/day^2 Epoch rev: 9992 Checksum: 284
Satellite: CAPE1 Catalog number: 31130 Epoch time: 09064.84756658 Element set: 543 Inclination: 098.0058 deg RA of node: 122.7393 deg Eccentricity: 0.0101594 Arg of perigee: 244.9188 deg Mean anomaly: 114.1401 deg Mean motion: 14.52036912 rev/day Decay rate: -5.7e-07 rev/day^2 Epoch rev: 9969 Checksum: 303
Satellite: COMPASS Catalog number: 32787 Epoch time: 09063.21781009 Element set: 0296 Inclination: 097.9557 deg RA of node: 127.8767 deg Eccentricity: 0.0016498 Arg of perigee: 017.1309 deg Mean anomaly: 343.0446 deg Mean motion: 14.81556697 rev/day Decay rate: 3.78e-06 rev/day^2 Epoch rev: 04590 Checksum: 340
Satellite: AAUSAT2 Catalog number: 32788 Epoch time: 09064.81507160 Element set: 297 Inclination: 097.9547 deg RA of node: 129.5032 deg Eccentricity: 0.0015505 Arg of perigee: 014.6113 deg Mean anomaly: 345.5552 deg Mean motion: 14.81676232 rev/day Decay rate: 1.97e-06 rev/day^2 Epoch rev: 4614 Checksum: 300
Satellite: DO-64 Catalog number: 32789 Epoch time: 09063.68648939 Element set: 0316 Inclination: 097.9598 deg RA of node: 128.4863 deg Eccentricity: 0.0015936 Arg of perigee: 015.7327 deg Mean anomaly: 344.4368 deg Mean motion: 14.81629095 rev/day Decay rate: 5.61e-06 rev/day^2 Epoch rev: 04597 Checksum: 372
Satellite: CO-66 Catalog number: 32791 Epoch time: 09063.18133682 Element set: 0292 Inclination: 097.9580 deg RA of node: 127.8698 deg Eccentricity: 0.0016587 Arg of perigee: 015.6348 deg Mean anomaly: 344.5366 deg Mean motion: 14.81394005 rev/day Decay rate: 2.3e-07 rev/day^2 Epoch rev: 04586 Checksum: 335
Satellite: RS-30 Catalog number: 32953 Epoch time: 09064.19711254 Element set: 247 Inclination: 082.5060 deg RA of node: 321.2898 deg Eccentricity: 0.0020172 Arg of perigee: 046.3507 deg Mean anomaly: 313.9241 deg Mean motion: 12.42999804 rev/day Decay rate: 1.0e-07 rev/day^2 Epoch rev: 3547 Checksum: 280
/EX
participants (1)
-
Ray Hoad